星链-4202 (STARLINK-4202 )

导读 | 豆包AI

STARLINK-4202是美国太空探索技术公司(SpaceX)星链卫星互联网项目的一员,于2022年6月17日发射入轨,属于星链低轨卫星星座组网卫星,承担全球互联网通信服务的组网功能,运行在近地轨道,依托大规模星座部署,为全球提供高速低延迟的宽带接入服务。

基本信息
目录编号:
52848
目录名称:
STARLINK-4202
国际标识:
2022-062U
轨道中心:
EARTH
卫星名称:
星链-4202
卫星全名:
星链-4202 (STARLINK-4202 )
卫星状态:
在轨 (已飞行1367 天)
发射日期:
2022-06-17 UTC
国别 :
美国 (US)
星等 :
--
轨道信息
数据来源 国际轨道数据
星历时间: 2026-03-14T10:29:07+0800
23小时前
查看轨道信息
半长轴: 6917.883km
偏心率: 0.0001215
轨道倾角: 53.219°
近地点辐角 84.458°
升交点赤经 14.306°
平近点角 275.655°
近地点: 538.905km
远地点: 540.587km
周期: 95.438分钟
每日圈数: 15.088392
详细信息
固有亮度:
5
最大亮度:
2.5
卫星平台:
Starlink v1.5
覆盖范围:
全球
运营商:
太空探索技术公司
运营商所在国:
美国
制造商(研发单位):
太空探索技术公司
制造商所在国:
美国
使用方式:
暂无
卫星简介
星链(Starlink)计划是由太空探索技术公司(SpaceX)提出的一个巨型低轨卫星互联网星座项目,计划在2019年至2024年间在太空搭建由约1.2万颗卫星组成的“星链”网络,其中1584颗将部署在地球上空550千米处的近地轨道,并从2020年开始工作。该卫星仍在工作。
2D轨道图
3D轨道图
轨道高度分析图
轨道倾角分析图
轨道综合分析图
查看轨道综合分析图